111  
SXUS52 KCHS 200827  
OSOCHS  
 
MARINE OBSERVATIONS  
NATIONAL WEATHER SERVICE CHARLESTON SC  
400 AM EDT SAT OCT 20 2018  
   
..DOWNTOWN CHARLESTON AND HARBOR
 
 
 
CITY SKY/WX TMP DP RH WIND PRES REMARKS  
WATERFRONT PRK N/A 72 70 93 VRB2 29.88F  
   
..LAKE MOULTRIE
 
 
 
CITY SKY/WX TMP DP RH WIND PRES REMARKS  
PINOPOLIS N/A 70 66 88 SW5 29.95F  
   
..LAKE AND SUPPLEMENTAL COASTAL OBSERVATIONS
 
 
 
STATION/POSITION TIME TEMP WIND PRES WAVE SWELL  
AIR SEA DIR/SP/G HT/PER HT/PER/DIR  
(UTC) (F) (DEG/KT/KT) (MB) (FT/S) (FT/S/D)  
FORT PULASKI 0800 73 77 240/ 3/ 4 1017.7  
SAPELO ISLAND 0800 72 270/ 2 1018.0  
WINYAH BAY 0745 69 260/ 2 1017.0F  
LAKE MURRAY 0720 69 260/ 10/ 13 1016.3  
ACE BASIN NERRS 0730 69 CALM 1017.0F  
 
   
..C-MAN AND BUOY OBSERVATIONS
 
 
 
STATION/POSITION TIME TEMP WIND PRES WAVE SWELL  
AIR SEA DIR/SP/G HT/PER HT/PER/DIR  
(UTC) (F) (DEG/KT/KT) (MB) (FT/S) (FT/S/D)  
BUOY 41004 0810 77 80 1016.6  
BUOY 41008 0750 78 80 210/ 10/ 12 1017.5F 3/ 8 3/ 80/ 8  
FOLLY BEACH CMAN 0800 74 230/ 6/ 8 1017.3F  
PRITCHARDS ISLAN NOT AVBL  
CAPERS NS BUOY 0808 76 77 250/ 10 1015.6F  
FRIPP NS BUOY 0808 CALM N/A  
5E ST. MARYS GA 0800 81 N/A 3/ 8  
 
 
STATION/POSITION TIME TEMP WIND PRES WAVE SWELL  
AIR SEA DIR/SP/G HT/PER HT/PER/DIR  
(UTC) (F) (DEG/KT/KT) (MB) (FT/S) (FT/S/D)  
FRYING PAN BUOY 0810 73 79 130/ 14/ 17 1015.5  
BUOY 41025 0810 76 76 210/ 21/ 25 1016.0  
CAPE LOOKOUT NC 0800 200/ 15/ 17 1016.2F  
BUOY 41002 0810 80 1017.7  
BUOY 41010 0810 81 83 160/ 8/ 12 1017.5  
ST AUGUSTINE FL 0800 74 81 240/ 3/ 4 1017.7F  
 

 
 
 
CLICK HERE TO GO TO PREVIOUS BULLETINS.

The Nexlab SC Page
The Nexlab GA Page Main Text Page